Location: Rhoscolyn Head
(53.2500°N, 4.6167°W)
Time: 07:09:59
(UTC+00:00)

Daily predictions for brighter satellites

Satellite Brightness Start Highest point End
(mag) Time Altitude Azimuth Time Altitude Azimuth Time Altitude Azimuth
SJ-11-01 4.4 18:34:30 10° SSE 18:39:09 85° WSW 18:43:52 10° NNW
Meteor 2-9 Rocket 4.3 18:33:36 10° S 18:39:28 79° E 18:45:20 10° NNE
USA 276 2.9 18:39:21 10° WSW 18:42:19 39° S 18:45:17 10° E
SJ 16-02 2.9 18:39:56 10° SE 18:42:35 16° E 18:45:16 10° ENE
SeaSat 1 3.2 18:40:32 10° ESE 18:45:01 36° NE 18:49:31 10° NNW
Cosmos 1356 Rocket 3.9 18:42:02 10° SSW 18:46:19 69° WNW 18:50:38 10° N
Cosmos 773 Rocket 4.0 18:42:06 10° NNW 18:47:23 74° ENE 18:52:39 10° SSE
COSMO-SKYMED 1 2.7 18:44:46 10° NNE 18:49:09 86° WNW 18:53:30 10° SSW
APEX 4.4 18:44:42 10° NNW 18:49:39 38° NE 18:53:38 10° ESE
CSL-04 Rocket 4.0 18:45:01 10° SE 18:50:08 47° ENE 18:55:21 10° N
CZ-4B R/B 2.7 18:48:03 10° NE 18:50:16 18° E 18:52:30 10° SE
IRAS Rocket 4.3 18:44:55 10° NNE 18:50:34 67° ESE 18:56:09 10° S
USA 305 2.9 18:47:58 10° W 18:52:13 81° N 18:56:28 10° E
Cosmos 1346 Rocket 3.2 18:51:16 10° N 18:55:09 43° ENE 18:59:00 10° SE
ERBS 3.0 18:52:05 10° W 18:55:16 48° NNW 18:58:29 10° ENE
Cosmos 2184 Rocket 4.0 18:51:02 10° S 18:57:16 65° E 19:03:28 10° NNE
SL-27 R/B 4.0 18:58:30 10° N 19:00:53 18° NE 19:02:48 12° E
Cosmos 1733 Rocket 3.8 19:01:03 10° SSW 19:05:17 58° WNW 19:09:36 10° N
COSMOS 2455 3.9 18:59:48 10° NW 19:05:34 48° WSW 19:11:18 10° S
USA 307 2.9 19:03:11 10° W 19:07:27 82° N 19:11:09 14° E
H-2A R/B 2.0 19:03:34 10° NNE 19:07:45 56° ESE 19:11:48 10° S
ARGOS 4.0 19:04:09 10° S 19:09:24 56° W 19:14:43 10° NNW
Cosmos 2297 Rocket 3.9 19:05:40 10° NNW 19:09:38 19° NNE 19:13:35 10° ENE
USA 215 3.4 19:08:45 10° ESE 19:15:19 76° SSW 19:21:56 10° WNW
Cosmos 1782 Rocket 3.9 19:11:37 10° SSE 19:15:49 44° E 19:20:01 10° NNE
Cosmos 2344 4.5 19:08:45 10° W 19:15:58 48° NNW 19:24:37 10° ENE
Cosmos 2154 Rocket 4.0 19:10:31 10° S 19:16:46 64° E 19:23:03 10° NNE
CENTAUR R/B 3.9 19:15:15 10° SE 19:18:31 15° ESE 19:22:03 10° ENE
Cosmos 1943 Rocket 2.1 19:13:39 10° SSW 19:19:13 79° ESE 19:24:53 10° NNE
USA 306 2.9 19:16:01 10° W 19:20:16 86° N 19:23:26 18° E
Cosmos 1441 Rocket 4.1 19:18:02 10° N 19:21:23 29° ENE 19:23:21 18° ESE
DMSP B5D2-2 4.1 19:17:00 10° NNE 19:22:17 64° ESE 19:27:32 10° S
Ariane Rocket 3.9 19:19:29 15° ESE 19:22:54 30° ENE 19:27:19 10° N
ASTRO F (AKARI) 4.3 19:20:01 10° SSE 19:23:25 72° ENE 19:26:42 10° NNW
Cosmos 1025 Rocket 3.4 19:19:20 10° N 19:23:31 43° ENE 19:27:21 12° SE
CZ-2C R/B 3.2 19:18:56 10° N 19:24:25 68° WNW 19:29:58 10° SSW
HJ-1C 4.3 19:21:26 10° S 19:24:37 49° W 19:27:50 10° NNW
Meteor 1-24 Rocket 4.3 19:20:12 10° N 19:25:08 36° ENE 19:29:01 16° SE
H-2A R/B 4.3 19:21:23 10° SSW 19:25:31 37° W 19:29:44 10° NNW
Nadezhda 3 Rocket 4.0 19:19:29 10° N 19:25:42 89° W 19:31:52 10° S
GENESIS II 4.4 19:22:27 10° SSW 19:26:08 46° SE 19:29:51 10° NE
USA 308 2.9 19:22:35 10° W 19:26:52 87° NNE 19:29:47 20° E
H-2A R/B 4.4 19:24:21 10° SSW 19:28:37 26° W 19:33:00 10° NW
Lacrosse 5 rocket 3.3 19:25:39 10° WNW 19:29:31 27° SW 19:33:15 10° S
ATLAS CENTAUR R/B 3.7 19:26:19 10° WNW 19:30:14 27° WSW 19:34:16 10° S
Cosmos 1833 4.2 19:25:03 10° NNW 19:30:44 78° ENE 19:35:56 12° SE
Cosmos 2227 Rocket 3.9 19:28:09 10° NNW 19:32:16 20° NNE 19:35:48 12° ENE
Cosmos 1538 Rocket 4.0 19:26:53 10° NNW 19:32:17 84° ENE 19:37:41 10° SSE
OBJECT-B 0.7 19:29:42 14° SSE 19:32:20 59° ENE 19:35:29 10° N
Cosmos 1184 Rocket 2.6 19:30:40 10° NNW 19:33:55 87° E 19:37:05 10° SSE
Cosmos 2278 Rocket 4.0 19:29:02 10° WSW 19:34:04 31° NW 19:39:08 10° NNE
BREEZE-M DEB (TANK) 3.9 19:27:46 10° WSW 19:35:20 47° S 19:37:04 24° ESE
Cosmos 2369 Rocket 2.2 19:29:55 10° S 19:35:25 56° ESE 19:40:56 10° NE
Cosmos 1674 3.4 19:35:05 10° NNW 19:38:43 54° W 19:42:21 10° S
Cosmos 1975 Rocket 3.1 19:35:02 10° NNW 19:39:29 88° W 19:43:57 10° S
Cosmos 158 Rocket 3.8 19:35:36 10° NNW 19:40:41 83° ENE 19:44:58 14° SSE
Okean-O 3.3 19:38:38 10° S 19:42:59 55° W 19:47:22 10° NNW
COSMOS 2487 4.0 19:40:48 10° N 19:43:19 19° NE 19:43:37 19° ENE
CSL-04 Debris 4.5 19:39:02 10° S 19:44:24 70° WSW 19:49:49 10° NNW
IGS 5A 4.3 19:43:54 26° E 19:45:15 32° ENE 19:48:57 10° N
Cosmos 2263 Rocket 4.4 19:42:50 10° NNW 19:45:28 13° N 19:48:06 10° NE
SL-14 R/B 3.2 19:41:54 10° N 19:45:54 71° ENE 19:48:57 16° SSE
Cosmos 1315 Rocket 2.9 19:42:09 10° S 19:46:01 51° E 19:49:58 10° NNE
Cosmos 2297 4.1 19:41:34 10° SW 19:47:15 67° NW 19:53:00 10° NNE
NOSS 3-2 (A) 4.1 19:42:45 10° S 19:47:25 27° ESE 19:52:38 10° ENE
Cosmos 1300 Rocket 3.8 19:45:03 10° SSE 19:49:14 45° E 19:53:24 10° NNE
Geosat 3.9 19:44:13 10° NE 19:49:17 76° ESE 19:54:19 10° SSW
Cosmos 1805 3.1 19:45:55 10° S 19:49:46 73° E 19:53:40 10° NNE
CZ-4 R/B 3.6 19:46:57 10° SSW 19:50:12 26° W 19:53:29 10° NW
Cosmos 1400 Rocket 3.8 19:46:48 10° SSW 19:50:45 50° WNW 19:54:43 10° N
Cosmos 1626 2.6 19:47:11 10° NNW 19:50:51 61° W 19:54:30 10° S
SJ-6B 2.8 19:47:40 14° SSE 19:51:10 80° ENE 19:55:16 10° NNW
Terra 4.0 19:51:00 11° ENE 19:51:47 11° NE 19:53:03 10° NNE
ISS -3.7 19:48:30 10° W 19:51:52 67° S 19:52:51 41° ESE
MOS 1 4.3 19:52:33 19° SE 19:56:37 62° ENE 20:02:15 10° NNW
Cosmos 1656 Rocket 3.6 19:51:57 10° S 19:57:23 57° ESE 20:02:45 10° NE
Resurs 01 Rocket 2.2 19:57:14 31° E 19:58:27 37° ENE 20:02:32 10° N
Cosmos 1726 3.8 20:02:32 20° NE 20:02:32 20° NE 20:04:02 10° NNE
EO 1 Delta rocket 4.1 19:58:29 20° SSE 20:01:57 67° ENE 20:07:51 10° N
SPOT 3 Rocket 4.2 20:01:21 29° E 20:03:01 37° ENE 20:07:43 10° N
Resurs 1-3 3.6 20:00:55 28° SE 20:03:09 66° ENE 20:07:31 10° N
IRS-1A Rocket 4.4 19:59:19 20° SE 20:03:23 67° ENE 20:09:17 10° NNW
Cosmos 1470 4.3 20:05:12 22° NE 20:05:12 22° NE 20:07:10 10° NNE
Cosmos 1777 Rocket 4.0 19:59:43 10° SSW 20:04:58 89° WNW 20:10:14 10° NNE
USA 186 2.5 20:03:04 18° S 20:05:05 50° W 20:08:12 10° NNW
Cosmos 1241 Rocket 4.4 19:59:34 10° NW 20:05:56 90° NE 20:09:34 27° SE
Cosmos 2366 rocket 4.1 20:00:43 10° SSE 20:06:37 52° E 20:12:33 10° NNE
NOSS 3-3 (A) 4.5 20:00:02 10° NW 20:07:20 89° SW 20:12:36 25° SE
NOSS 3-3 (C) 4.5 20:00:08 10° NW 20:07:26 89° SW 20:12:41 25° SE
Cosmos 2219 4.5 20:03:12 10° NNW 20:07:58 27° NE 20:10:06 21° ENE
Cosmos 2341 Rocket 3.9 20:01:56 10° S 20:08:16 76° E 20:14:40 10° NNE
ARIANE 5 R/B 4.4 20:09:01 17° NE 20:09:02 17° NE 20:11:52 10° NNE
Cosmos 2263 4.1 20:03:48 10° SSW 20:09:21 71° ESE 20:14:58 10° NE
Meteor 1-15 Rocket 4.1 20:05:14 10° S 20:10:47 77° E 20:16:26 10° NNE
Landsat 7 4.0 20:10:21 37° ESE 20:11:49 50° ENE 20:16:26 10° N
BREEZE-M R/B 2.8 20:08:29 10° WSW 20:11:56 48° S 20:12:46 40° SE
Cosmos 1733 3.4 20:09:54 10° SSW 20:13:41 71° WNW 20:17:33 10° N
Cosmos 923 Rocket 3.9 20:08:37 10° NNW 20:13:52 85° ENE 20:16:24 31° SSE
Lacrosse 4 Rocket 4.1 20:13:46 10° NW 20:15:58 14° NNW 20:18:12 10° NNE
Cosmos 2218 Rocket 3.9 20:11:45 10° S 20:17:48 63° E 20:23:57 10° NNE
USA 276 2.9 20:15:12 10° W 20:17:47 39° SSW 20:17:47 39° SSW
Cosmos 1766 3.2 20:14:38 10° S 20:18:34 87° WNW 20:22:28 10° N
Helios 1A Rocket 2.9 20:18:03 34° S 20:19:45 84° WSW 20:23:51 10° NNW
Meteor 2-10 4.1 20:14:56 10° S 20:20:27 60° E 20:25:49 10° NNE
SJ 16-02 1.4 20:16:09 10° SSW 20:20:35 78° WNW 20:25:03 10° NNE
USA 281 3.8 20:14:55 10° NE 20:20:23 31° E 20:20:23 31° E
Meteor 1-22 Rocket 4.2 20:15:40 12° S 20:20:51 60° E 20:26:38 10° NNE
Meteor 2-5 Rocket 3.7 20:16:45 10° NNW 20:22:20 79° WSW 20:26:26 19° S
SeaSat 1 3.0 20:19:09 20° S 20:22:24 54° WSW 20:27:17 10° NW
CZ-4B R/B 3.0 20:19:38 10° N 20:22:27 33° WNW 20:25:17 10° SW
Cosmos 1680 Rocket 3.4 20:21:33 10° NNW 20:26:52 83° ENE 20:28:47 41° SSE
ERBS 3.0 20:28:29 10° WNW 20:31:33 44° N 20:31:33 44° N
Cosmos 1959 Rocket 4.4 20:25:26 10° S 20:31:45 75° E 20:38:02 10° NNE
USA 305 3.0 20:27:55 10° WNW 20:32:05 58° SSW 20:32:30 55° S
Cosmos 864 Rocket 4.4 20:27:31 10° S 20:33:44 76° E 20:39:57 10° NNE
SL-27 R/B 3.1 20:32:57 10° NW 20:36:09 46° WSW 20:36:17 46° WSW
Okean 1 Rocket 4.4 20:38:52 26° NE 20:38:52 26° NE 20:41:06 10° NNE
SPOT 1/Viking Rocket 3.6 20:37:41 51° ESE 20:38:32 58° ENE 20:43:37 10° N
ERS-1 Rocket 4.0 20:39:16 30° ENE 20:39:16 30° ENE 20:43:35 10° N
Okean 2 Rocket 3.0 20:37:57 34° SSW 20:39:49 87° W 20:44:16 10° N
Cosmos 2112 Rocket 4.0 20:40:22 10° NNW 20:45:40 83° WSW 20:47:00 52° SSE
USA 307 3.2 20:43:10 10° WNW 20:47:12 53° SW 20:47:12 53° SW
CSL-04 DEB 4.5 20:46:04 10° NNE 20:50:00 71° WNW 20:50:33 60° SW
Sich 1 Rocket 4.4 20:47:51 10° SSW 20:52:17 52° WNW 20:56:42 10° N
Cosmos 1000 Rocket 4.4 20:47:56 10° N 20:54:05 66° ENE 20:55:13 55° SE
Cosmos 2297 Rocket 2.4 20:49:28 10° NNW 20:55:01 53° NE 20:55:39 50° ENE
Cosmos 990 Rocket 3.8 20:57:07 72° ESE 20:57:07 72° ESE 21:02:18 10° NNE
Cosmos 1892 Rocket 4.5 20:54:14 10° N 20:57:30 38° NNE 20:57:30 38° NNE
Cosmos 1536 Rocket 4.3 20:54:23 10° NNW 20:58:40 49° W 20:59:48 39° SW
USA 215 4.5 20:55:54 21° S 20:59:01 31° SW 21:04:46 10° WNW
USA 306 3.7 20:56:00 10° WNW 20:59:28 41° SW 20:59:28 41° SW
Ariane Rocket 3.6 20:59:42 33° SSW 21:01:39 53° W 21:06:39 10° NNW
Cosmos 1821 Rocket 4.0 21:01:10 57° SE 21:01:59 62° E 21:08:19 10° NNE
Cosmos 1943 Rocket 4.1 20:58:45 10° W 21:03:36 29° NW 21:08:30 10° NNE
USA 245 3.9 21:04:47 61° NNE 21:04:47 61° NNE 21:09:14 10° NNW
OBJECT-B 3.9 21:03:39 10° WSW 21:04:47 11° W 21:05:54 10° WNW
USA 308 3.9 21:02:36 10° WNW 21:05:51 39° WSW 21:05:51 39° WSW
CENTAUR R/B 2.5 21:01:37 10° SSW 21:07:33 63° SE 21:14:43 10° NE
Cosmos 1867 3.4 21:07:57 10° NW 21:13:29 86° NE 21:13:39 84° E
Cosmos 2151 Rocket 4.3 21:13:01 40° WSW 21:14:13 52° WNW 21:18:38 10° N
Cosmos 2227 Rocket 2.4 21:11:58 10° NNW 21:17:36 56° NE 21:17:37 56° NE
Cosmos 2369 Rocket 3.6 21:14:29 10° WSW 21:19:43 37° NW 21:24:57 10° NNE
Iridium 4 Rocket 3.7 21:16:38 10° N 21:20:07 53° NNW 21:20:07 53° NNW
Cosmos 2123 Rocket 3.9 21:15:36 10° N 21:21:54 68° ENE 21:22:07 68° E
SPOT 5 3.3 21:22:44 59° NE 21:22:44 59° NE 21:27:23 10° N
SL-08 R/B 4.4 21:23:23 53° SSW 21:24:57 82° W 21:31:09 10° N
Cosmos 1898 Rocket 4.0 21:27:44 52° NNE 21:27:44 52° NNE 21:31:43 10° NNE
Cosmos 2082 4.5 21:22:07 10° NNW 21:27:19 40° NE 21:27:19 40° NE
ISS -0.8 21:25:19 10° W 21:25:49 13° W 21:25:49 13° W
Terra 2.8 21:29:53 38° NNE 21:29:53 38° NNE 21:33:09 10° N
USA 238 DEB 3.5 21:22:04 10° SW 21:28:36 74° SE 21:35:33 10° NE
MetOp-B 4.4 21:28:05 56° SW 21:28:38 59° WSW 21:33:57 10° NNW
USA 238 3.5 21:22:12 10° SW 21:29:23 68° E 21:35:39 10° NE
Cosmos 2263 Rocket 3.7 21:26:56 10° NNW 21:31:33 25° NE 21:31:58 25° NE
Resurs 01 Rocket 3.0 21:34:48 32° W 21:35:00 32° W 21:39:00 10° NNW
Cosmos 1726 4.3 21:36:56 25° NW 21:36:56 25° NW 21:39:12 10° N
NOSS 3-2 (A) 3.4 21:31:43 10° SW 21:37:29 81° NW 21:44:20 10° NE
Timation 2 Rocket 4.2 21:31:37 10° NNW 21:38:29 67° NE 21:38:54 66° ENE
SPOT 3 Rocket 4.4 21:42:02 42° WSW 21:42:23 43° W 21:47:18 10° NNW
ARIANE 5 R/B 3.9 21:46:34 38° NNW 21:46:34 38° NNW 21:49:22 10° NNW
Cosmos 2219 3.4 21:47:11 10° NNW 21:52:01 66° NW 21:52:01 66° NW
Spot 2 Rocket 4.2 21:57:07 50° WNW 21:57:07 50° WNW 22:01:12 10° NNW
Lacrosse 4 Rocket 4.3 21:55:18 10° N 21:56:25 11° N 21:57:28 10° NNE
SJ 16-02 4.3 21:57:10 10° W 21:59:57 16° NW 22:02:44 10° N
USA 281 3.3 21:59:08 10° NNE 22:05:40 72° NW 22:07:12 54° WSW
Cosmos 1934 Rocket 4.2 22:07:03 67° N 22:07:03 67° N 22:12:21 10° N
ERS-1 Rocket 4.2 22:19:16 39° NW 22:19:16 39° NW 22:22:46 10° NNW
Cosmos 2297 Rocket 3.6 22:33:48 10° NW 22:37:27 31° WNW 22:37:27 31° WNW
NOSS 3-2 (C) 4.4 22:50:22 44° NNE 22:50:22 44° NNE 22:55:23 10° NE
CENTAUR R/B 3.4 22:52:16 10° WSW 22:58:31 52° NNW 23:06:05 10° NE
Cosmos 2227 Rocket 3.9 22:56:24 10° NW 22:59:25 26° WNW 22:59:25 26° WNW
Terra 4.2 23:08:46 19° NW 23:08:46 19° NW 23:10:34 10° NW
Cosmos 2263 Rocket 3.7 23:10:39 10° NNW 23:13:38 33° NNW 23:13:38 33° NNW
USA 238 DEB 4.5 23:13:34 10° W 23:20:01 47° NNW 23:26:53 10° NE
USA 238 4.5 23:13:41 10° W 23:20:07 47° NNW 23:26:59 10° NE
